[[{"header":{"parameterUnit":"m.s-1","parameterCategory":1,"la1":30.2991,"la2":30.254,"lo1":-89.0895,"lo2":-89.0444,"dy":0.0017,"dx":0.0017,"nx":28,"ny":28,"refTime":"2025-03-08T03:00:00:Z","depth":0,"parameterNumber":2,"parameterNumberName":"U-component_of_WINDS"},"data":[0,0,0,0,0,0,0,0,0,0,0,0,0,0,0,0,0,0,0,0,0,0,0,0,0,0,0,0,0,0,0,0,0,0,0,0,0,0,0,0,0,0,0,0,0,0,0,0,0,0,0,0,0,0,0,0,0,0,-4.7598,-4.7598,0,-4.7624,-4.7624,-4.7624,-4.7541,-4.7539,-4.7536,-4.7534,-4.7562,-4.7565,-4.7568,0,0,0,0,0,0,0,0,0,0,0,0,0,-4.748,-4.7482,-4.7598,-4.7598,-4.7599,-4.7624,-4.7624,-4.7625,-4.7542,-4.7539,-4.7536,-4.7533,-4.7561,-4.7565,-4.7569,0,0,0,0,0,0,0,0,0,0,0,0,0,-4.7521,-4.7483,-4.7598,-4.756,-4.7557,-4.7624,-4.7624,-4.7625,-4.7543,-4.7539,-4.7535,-4.7531,-4.756,-4.7565,-4.7569,-4.7674,0,0,-4.7583,-4.7586,0,0,0,0,0,0,0,0,-4.7519,-4.7525,-4.7566,-4.7563,-4.756,-4.7576,-4.7593,-4.7641,-4.7544,-4.7548,-4.7534,-4.753,-4.757,-4.7574,-4.7587,-4.7675,-4.7676,-4.7584,-4.7587,-4.7589,-4.759,0,0,0,0,0,0,0,-4.7516,-4.7524,-4.7608,-4.7566,-4.7563,-4.7543,-4.7545,-4.7602,-4.758,-4.7547,-4.7542,-4.7546,-4.7568,-4.7582,-4.7587,-4.7677,-4.7584,-4.7588,-4.7591,-4.7593,-4.7853,-4.7857,0,0,0,0,0,0,-4.7518,-4.7522,-4.7607,-4.7609,-4.7529,-4.7548,-4.755,-4.7574,-4.7579,-4.7576,-4.7549,-4.7542,-4.7576,-4.7581,-4.7588,-4.7709,-4.7589,-4.7593,-4.7596,-4.7849,-4.7854,-4.7858,0,0,0,0,0,0,-4.7515,-4.7526,-4.7606,-4.7564,-4.7573,-4.7554,-4.7582,-4.7577,-4.7591,-4.758,-4.7576,-4.7568,-4.7574,-4.7581,-4.7653,-4.7709,-4.7595,-4.7599,-4.7844,-4.785,-4.7856,-4.7954,0,0,0,0,0,0,-4.7512,-4.7526,-4.7564,-4.7565,-4.7575,-4.767,-4.7586,-4.758,-4.7599,-4.759,-4.7597,-4.7594,-4.7571,-4.7646,-4.7658,-4.7713,-4.7603,-4.7839,-4.7847,-4.7854,-4.7945,-4.7963,-4.7977,0,0,0,0,0,-4.7508,-4.7591,-4.7566,-4.7577,-4.7623,-4.7674,-4.7679,-4.765,-4.7604,-4.7643,-4.7637,-4.7594,-4.7702,-4.7654,-4.7666,-4.7724,-4.7835,-4.7845,-4.7854,-4.7938,-4.7959,-4.7977,0,0,0,0,0,0,-4.7596,-4.759,-4.7563,-4.7648,-4.7662,-4.7659,-4.7707,-4.7674,-4.7701,-4.7691,-4.7656,-4.7658,-4.7736,-4.7738,-4.7685,-4.7826,-4.7761,-4.7773,-4.7821,-4.7841,-4.7857,-4.7853,-4.7607,0,0,0,0,0,-4.7626,-4.7667,-4.766,-4.7736,-4.7744,-4.7725,-4.7746,-4.7723,-4.7736,-4.7742,-4.774,-4.7755,-4.7792,-4.7818,-4.7851,-4.7947,-4.7947,-4.7993,-4.8009,-4.8023,-4.8032,-4.8083,-4.8103,-4.7889,-4.7889,-4.7888,0,0,-4.7686,-4.7688,-4.7716,-4.7753,-4.7761,-4.7805,-4.773,-4.778,-4.7812,-4.7749,-4.7816,-4.7817,-4.7831,-4.7916,-4.7953,-4.7919,-4.8092,-4.8034,-4.8045,-4.8047,-4.8095,-4.8115,-4.8133,-4.7895,-4.7894,-4.7893,0,0,-4.7818,-4.7825,-4.7888,-4.7898,-4.7912,-4.7899,-4.7915,-4.7919,-4.7916,-4.7983,-4.7937,-4.7977,-4.8042,-4.8054,-4.8068,-4.821,-4.8172,-4.8223,-4.8304,-4.8354,-4.8371,-4.8386,-4.8434,-4.8452,-4.8233,-4.8233,-4.8234,0,-4.7891,-4.7954,-4.7925,-4.7978,-4.7996,-4.7943,-4.8007,-4.8019,-4.8043,-4.8057,-4.802,-4.8102,-4.8108,-4.8194,-4.8229,-4.8244,-4.826,-4.8219,-4.8371,-4.8385,-4.8399,-4.8445,-4.8463,-4.8239,-4.8239,-4.8238,-4.8237,0,-4.8043,-4.8089,-4.8139,-4.8163,-4.8188,-4.8246,-4.8226,-4.8255,-4.8232,-4.8224,-4.8294,-4.83,-4.8334,-4.8354,-4.8332,-4.8438,-4.8417,-4.8377,-4.8309,-4.8425,-4.8468,-4.8485,-4.8248,-4.8246,-4.8244,-4.8242,0,0,-4.8226,-4.8236,-4.8255,-4.8265,-4.8279,-4.8313,-4.8372,-4.8405,-4.8429,-4.845,-4.8496,-4.8555,-4.8518,-4.8535,-4.8515,-4.8559,-4.8669,-4.8513,-4.8513,-4.8539,-4.8786,-4.8813,-4.8834,-4.8646,-4.865,-4.8652,-4.8784,0,-4.8353,-4.845,-4.8427,-4.8523,-4.8565,-4.8518,-4.8568,-4.8582,-4.8578,-4.8613,-4.8609,-4.8649,-4.8599,-4.8609,-4.8651,-4.8647,-4.8718,-4.8638,-4.8688,-4.8691,-4.8682,-4.8857,-4.8885,-4.9009,-4.88,-4.8803,-4.8805,0,-4.8513,-4.854,-4.864,-4.8648,-4.8665,-4.871,-4.874,-4.8775,-4.8791,-4.8785,-4.8806,-4.8778,-4.8836,-4.8772,-4.8852,-4.8798,-4.8818,-4.882,-4.8825,-4.8824,-4.8752,-4.8859,-4.9048,-4.9065,-4.8832,-4.883,-4.8828,0,-4.8633,-4.8695,-4.8762,-4.8774,-4.8785,-4.8818,-4.8825,-4.8838,-4.886,-4.8887,-4.8901,-4.8936,-4.8954,-4.8981,-4.8964,-4.8919,-4.9046,-4.8981,-4.9042,-4.9042,-4.9067,-4.9065,-4.9258,-4.9087,-4.9087,-4.9086,-4.9086,0,-4.8775,-4.8838,-4.8816,-4.8857,-4.8927,-4.8902,-4.8972,-4.8973,-4.8986,-4.9027,-4.8991,-4.903,-4.9006,-4.9045,-4.9033,-4.91,-4.9109,-4.9106,-4.9101,-4.9106,-4.9106,-4.9116,-4.9105,-4.9091,-4.909,-4.9089,-4.9088,0,-4.8918,-4.8906,-4.8977,-4.8983,-4.8987,-4.9038,-4.9043,-4.9082,-4.9077,-4.913,-4.9142,-4.9133,-4.9177,-4.9163,-4.9211,-4.9203,-4.9287,-4.9274,-4.9281,-4.9276,-4.9337,-4.933,-4.954,-4.9566,-4.9382,-4.9383,-4.9385,0,-4.9007,-4.9054,-4.9067,-4.9092,-4.9101,-4.9142,-4.9165,-4.9145,-4.917,-4.9194,-4.9231,-4.9272,-4.9302,-4.9375,-4.9374,-4.9411,-4.9395,-4.9467,-4.94,-4.9405,-4.9393,-4.9388,-4.9392,-4.9478,-4.948,-4.9482,-4.9483,0,-4.9166,-4.9159,-4.9193,-4.9226,-4.9255,-4.928,-4.9302,-4.9325,-4.9306,-4.9337,-4.9382,-4.9406,-4.9456,-4.9496,-4.953,-4.9538,-4.9508,-4.9505,-4.9521,-4.9525,-4.9526,-4.9523,-4.9313,-4.9499,-4.9497,-4.9496,-4.9495,-4.9495,-4.9282,-4.9322,-4.9337,-4.9377,-4.9392,-4.9414,-4.9451,-4.9452,-4.9488,-4.9526,-4.9513,-4.9564,-4.9582,-4.9625,-4.9638,-4.9678,-4.965,-4.9674,-4.9679,-4.9684,-4.969,-4.9524,-4.9685,-4.9684,-4.9684,-4.9683,-4.9683,0,-4.9436,-4.9445,-4.9482,-4.9514,-4.9547,-4.9518,-4.9542,-4.957,-4.9615,-4.9635,-4.9667,-4.9719,-4.9759,-4.9763,-4.9801,-4.9833,-4.982,-4.9843,-4.9839,-4.9841,-4.9714,-4.9695,-4.9853,-4.9853,-4.9853,-4.9853,-4.9853,-4.9853,-4.9519,-4.9584,-4.958,-4.9654,-4.9662,-4.9711,-4.9727,-4.9748,-4.9764,-4.9823,-4.9857,-4.986,-4.9873,-4.9913,-4.9949,-4.995,-4.9964,-4.9992,-4.9987,-4.9867,-4.985,-4.9833,-4.9815,-4.9997,-4.9997,-5.011,-5.0111,-5.0112]},{"header":{"parameterUnit":"m.s-1","parameterCategory":1,"la1":30.2991,"la2":30.254,"lo1":-89.0895,"lo2":-89.0444,"dy":0.0017,"dx":0.0017,"nx":28,"ny":28,"refTime":"2025-03-08T03:00:00:Z","depth":0,"parameterNumber":3,"parameterNumberName":"V-component_of_WINDS"},"data":[0,0,0,0,0,0,0,0,0,0,0,0,0,0,0,0,0,0,0,0,0,0,0,0,0,0,0,0,0,0,0,0,0,0,0,0,0,0,0,0,0,0,0,0,0,0,0,0,0,0,0,0,0,0,0,0,0,0,2.804,2.804,0,2.8023,2.8023,2.8022,2.7952,2.795,2.7949,2.7947,2.7927,2.7928,2.7929,0,0,0,0,0,0,0,0,0,0,0,0,0,2.8013,2.8014,2.804,2.804,2.804,2.8023,2.8023,2.8022,2.7952,2.795,2.7948,2.7946,2.7927,2.7928,2.7929,0,0,0,0,0,0,0,0,0,0,0,0,0,2.8013,2.8014,2.804,2.8003,2.7999,2.8023,2.8023,2.8022,2.7952,2.795,2.7948,2.7945,2.7926,2.7928,2.7929,2.7987,0,0,2.7934,2.7934,0,0,0,0,0,0,0,0,2.8013,2.8014,2.8008,2.8005,2.8001,2.7987,2.8005,2.801,2.7953,2.797,2.7947,2.7944,2.7949,2.7948,2.795,2.7986,2.7985,2.7934,2.7935,2.7935,2.7936,0,0,0,0,0,0,0,2.8013,2.8014,2.8033,2.8008,2.8004,2.7987,2.7984,2.8006,2.7973,2.7968,2.7963,2.7962,2.7946,2.7949,2.7949,2.7985,2.7934,2.7935,2.7936,2.7936,2.8071,2.8073,0,0,0,0,0,0,2.8018,2.8015,2.8034,2.8033,2.8001,2.7989,2.7986,2.7994,2.7973,2.7967,2.7964,2.7959,2.7948,2.7948,2.7948,2.8017,2.7935,2.7937,2.7937,2.8068,2.8071,2.8074,0,0,0,0,0,0,2.8018,2.8021,2.8034,2.8022,2.8023,2.7992,2.8002,2.7995,2.7997,2.797,2.7963,2.7973,2.7946,2.7946,2.7979,2.8015,2.7937,2.7939,2.8065,2.8069,2.8073,2.8153,0,0,0,0,0,0,2.8018,2.8021,2.8042,2.8023,2.8024,2.8065,2.8004,2.7996,2.8001,2.7993,2.7976,2.7971,2.7944,2.7977,2.798,2.8016,2.794,2.8061,2.8067,2.8071,2.8147,2.8159,2.817,0,0,0,0,0,2.8017,2.8064,2.8044,2.8046,2.805,2.8067,2.8068,2.8036,2.8004,2.8025,2.8008,2.7972,2.8011,2.7981,2.7984,2.802,2.8059,2.8065,2.8071,2.8142,2.8157,2.8169,0,0,0,0,0,0,2.8086,2.8061,2.8038,2.8081,2.8077,2.8056,2.8081,2.8052,2.8057,2.805,2.801,2.8007,2.8046,2.8036,2.8003,2.8077,2.8029,2.8036,2.8082,2.8096,2.8107,2.8108,2.7941,0,0,0,0,0,2.8107,2.8124,2.81,2.8141,2.814,2.8112,2.8118,2.8094,2.8089,2.8086,2.8071,2.8067,2.8078,2.8086,2.8095,2.8146,2.8142,2.8172,2.8184,2.8193,2.82,2.8229,2.8243,2.8094,2.8094,2.8094,0,0,2.8149,2.8137,2.815,2.8154,2.8149,2.8168,2.811,2.8132,2.8146,2.8089,2.812,2.8109,2.8102,2.8144,2.8162,2.8137,2.824,2.8201,2.8209,2.821,2.8236,2.825,2.8263,2.8098,2.8097,2.8097,0,0,2.8236,2.8228,2.8262,2.8258,2.8252,2.8233,2.8241,2.8225,2.8217,2.8247,2.8206,2.8222,2.8242,2.8239,2.824,2.8331,2.8298,2.8335,2.8394,2.8423,2.8435,2.8445,2.8479,2.8492,2.8341,2.8342,2.8342,0,2.8288,2.8315,2.8283,2.8308,2.8312,2.8264,2.8299,2.8297,2.8293,2.8297,2.827,2.8297,2.8288,2.8331,2.8353,2.8355,2.8365,2.8336,2.8436,2.8446,2.8455,2.8487,2.85,2.8346,2.8346,2.8345,2.8345,0,2.8382,2.8402,2.843,2.843,2.8437,2.8467,2.844,2.8451,2.8428,2.8413,2.8446,2.8434,2.8442,2.845,2.8426,2.8491,2.8476,2.8443,2.8394,2.8474,2.8504,2.8515,2.8353,2.8351,2.835,2.8349,0,0,2.8509,2.8494,2.8505,2.8506,2.8496,2.8511,2.854,2.8549,2.856,2.856,2.8584,2.8604,2.8575,2.8576,2.8553,2.8578,2.8653,2.8542,2.8541,2.8564,2.8726,2.8752,2.8766,2.8632,2.8634,2.8636,2.8727,0,2.8593,2.8642,2.8616,2.8668,2.8688,2.8644,2.867,2.8667,2.8655,2.8669,2.8655,2.8671,2.863,2.8631,2.8654,2.8639,2.8685,2.8632,2.8655,2.8656,2.8659,2.8781,2.8808,2.8894,2.8738,2.874,2.8742,0,2.8697,2.8704,2.876,2.8751,2.8757,2.8781,2.8789,2.8803,2.88,2.8789,2.8794,2.8765,2.8793,2.8746,2.8786,2.875,2.8758,2.8753,2.8756,2.8757,2.8704,2.8787,2.8921,2.8934,2.8759,2.8758,2.8756,0,2.8787,2.881,2.8847,2.8849,2.8838,2.8856,2.8853,2.8848,2.8856,2.8863,2.8868,2.8877,2.8883,2.8891,2.8866,2.8833,2.891,2.886,2.8903,2.8904,2.8921,2.892,2.9059,2.8925,2.8925,2.8924,2.8924,0,2.8884,2.892,2.8888,2.8911,2.8951,2.892,2.8961,2.8952,2.8949,2.897,2.8933,2.8953,2.8919,2.8936,2.8917,2.8955,2.8957,2.8949,2.8944,2.8953,2.8955,2.8958,2.8952,2.8928,2.8927,2.8926,2.8926,0,2.899,2.897,2.9008,2.8996,2.8995,2.9025,2.9015,2.9036,2.9022,2.905,2.9054,2.9032,2.9051,2.9028,2.9043,2.9031,2.9083,2.9067,2.9084,2.908,2.9125,2.9122,2.9272,2.9291,2.9144,2.9145,2.9146,0,2.9054,2.9081,2.9074,2.9086,2.9085,2.9105,2.9114,2.9086,2.9097,2.9098,2.912,2.9136,2.9148,2.918,2.9166,2.9179,2.9165,2.9216,2.9166,2.9176,2.9167,2.9167,2.917,2.9227,2.9228,2.923,2.9231,0,2.9169,2.9159,2.9174,2.9187,2.9199,2.9208,2.9213,2.9225,2.9196,2.9211,2.9231,2.924,2.9258,2.9276,2.9286,2.9282,2.9253,2.9247,2.9258,2.9268,2.9278,2.9275,2.9113,2.9244,2.9242,2.9241,2.9241,2.924,2.9257,2.9281,2.928,2.9299,2.9301,2.9308,2.9328,2.9318,2.9335,2.9349,2.9331,2.9357,2.9356,2.9367,2.9367,2.9387,2.9365,2.938,2.9384,2.9389,2.9397,2.9274,2.9388,2.9388,2.9388,2.9387,2.9387,0,2.9372,2.9371,2.9389,2.9399,2.9415,2.9387,2.9393,2.9407,2.9431,2.9434,2.9447,2.9472,2.9489,2.9478,2.9493,2.9511,2.9498,2.9516,2.9515,2.9515,2.9415,2.9404,2.9527,2.9527,2.9527,2.9527,2.9527,2.9527,2.9434,2.9474,2.9464,2.9505,2.9503,2.9529,2.9535,2.9542,2.9544,2.9574,2.9589,2.9582,2.9579,2.9595,2.961,2.9606,2.9614,2.9638,2.9629,2.9535,2.9522,2.9509,2.9499,2.9639,2.9639,2.9728,2.9729,2.973]}]]